sat.trackr.live / text

‹ back to catalog

COSMOS 2460 (732)

NORAD 36402 · 2010-007C

PAYLOAD ACTIVE UNKNOWN

§ Identity

Operator
Country
CIS
Launch date
2010-03-01
Launch site
TYMSC
Launch vehicle
Mass (kg)
RCS (m²)
4.78

Purposes: nav

External: N2YO · Heavens-Above · Gunter

§ Orbital elements

Epoch: 2026-05-21T09:27:21.573216Z

Period
675.72 min
Inclination
65.4368°
Eccentricity
0.0002175
Mean motion
2.13106126 rev/d
Perigee alt
19,124.0 km
Apogee alt
19,135.1 km
Semi-major
25,507.7 km
B*
0.0000e+0
RAAN
315.3728°
Arg perigee
89.3837°
Mean anomaly
261.6495°
Rev number
12,615

§ Raw data

COSMOS 2460 (732)1 36402U 10007C   26141.39399969 -.00000036  00000+0  00000+0 0  99922 36402  65.4368 315.3728 0002175  89.3837 261.6495  2.13106126126151

JSON: /api/v1/satellites/36402 · /tle

For live sub-satellite position, see the globe view (requires WebGL).

§ Visibility from observer

Set your observer location to see the next 7 days of passes ≥ 10°. The values pass through the URL so the page stays shareable.

No JS? Fill the form by hand. The geolocation button needs JavaScript.